AirNav   Pilot Hours Calculator
 
 1466 users online  

M93 Houston County Airport
Mc Kinnon, Tennessee, USA

GOING TO MC KINNON?


FAA INFORMATION EFFECTIVE 31 DECEMBER 2020

Location

FAA Identifier: M93
Lat/Long: 36-19-00.1980N 087-55-00.1040W
36-19.003300N 087-55.001733W
36.3167217,-87.9166956
(estimated)
Elevation: 370 ft. / 113 m (estimated)
Variation: 00E (1985)
Time zone: UTC -6 (UTC -5 during Daylight Saving Time)
Zip code: 37175

Airport Operations

Airport use: Open to the public
Activation date: 10/1962
Control tower: no
ARTCC: MEMPHIS CENTER
FSS: JACKSON FLIGHT SERVICE STATION
NOTAMs facility: MKL (NOTAM-D service available)
Attendance: UNATNDD
Wind indicator: yes
Segmented circle: no

Airport Communications

CTAF: 122.9

Nearby radio navigation aids

VOR radial/distance  VOR name  Freq  Var
CKVr234/30.4CLARKSVILLE VOR/DME110.6001W

 
NDB name  Hdg/Dist  Freq  Var  ID
TRAINER081/24.541000ETIQ - .. --.-
HUNTINGDON065/30.021702WHZD .... --.. -..

Airport Services

Fuel available: 100LL
Parking: tiedowns
Airframe service: NONE
Powerplant service: NONE
Bottled oxygen: NONE
Bulk oxygen: NONE

Runway Information

Runway 8/26

Dimensions: 3000 x 75 ft. / 914 x 23 m
Surface: asphalt, in good condition
Weight bearing capacity: 
Single wheel: 11.0
Double wheel: 24.0
RUNWAY 8  RUNWAY 26
Traffic pattern: leftleft
Markings: basic, in fair conditionbasic, in fair condition
Runway end identifier lights: nono
Obstructions: 154 ft. trees, 2650 ft. from runway, 86 ft. right of centerline, 15:1 slope to clear
RY 08 TREES ALONG ROAD NEAR ROW OF HOUSES VIOLATE 7:1 TRANSITIONAL SFC.
112 ft. trees, 2143 ft. from runway, 87 ft. left of centerline, 17:1 slope to clear
RY 26 TREES ON SOUTH SIDE OF THLD VIOLATE 7:1 TRANSITIONAL SFC.

Airport Ownership and Management from official FAA records

Ownership: Publicly-owned
Owner: HOUSTON COUNTY
COUNTY COURTHOUSE
ERIN, TN 37061
Phone 931-289-3633
Manager: JAMES K. BRIDGES HOUSTON CNTY MAYOR
COUNTY COURTHOUSE, P.O. BOX 366
ERIN, TN 37061
Phone 931-289-3633

Airport Operational Statistics

Aircraft based on the field: 5
Single engine airplanes: 5
    
Aircraft operations: avg 40/week *
71% local general aviation
14% transient general aviation
14% military
* for 12-month period ending 14 May 2020

Additional Remarks

FOR CD CTC MEMPHIS ARTCC AT 901-368-8453.

Instrument Procedures

There are no published instrument procedures at M93.

Some nearby airports with instrument procedures:

0M5 - Humphreys County Airport (15 nm SE)
0M4 - Benton County Airport (21 nm SW)
KPHT - Henry County Airport (23 nm W)
KEOD - Sabre Army Airfield (Fort Campbell) (26 nm NE)
M02 - Dickson Municipal Airport (26 nm SE)
 
Loc | Ops | Rwys | IFR | FBO | Links
Com | Nav | Svcs | Stats | Notes
Area around M93 (Houston County Airport)
 
Road maps at: MapQuest Bing Google
 
Aerial photo
WARNING: Photo may not be current or correct
Aerial photo of M93 (Houston County Airport)
Photo by Eve Cascella
Photo taken 20-Oct-2008
from the east looking west

Do you have a better or more recent aerial photo of Houston County Airport that you would like to share? If so, please send us your photo.

 
Sectional chart

 
Airport distance calculator
Flying to Houston County Airport? Find the distance to fly.

From to M93

Sunrise and sunset
Times for 15-Jan-2021
 Local
(UTC-6)
 Zulu
(UTC)
Morning civil twilight06:3512:35
Sunrise07:0313:03
Sunset16:5922:59
Evening civil twilight17:2723:27

Current date and time
Zulu (UTC)  15-Jan-2021 17:01:50
Local (UTC-6)  15-Jan-2021 11:01:50
 
METAR
KPHT 
23nm W 
151655Z AUTO 25012G18KT 10SM CLR 06/M04 A2966 RMK A01
KEOD 
26nm NE 
151658Z AUTO 22011KT 10SM CLR 06/M04 A2965 RMK AO2 SLP046 T00621037
KM02 
26nm SE 
151655Z AUTO 21015G23KT 10SM CLR 06/M05 A2964 RMK A01
KHOP 
29nm NE 
151656Z AUTO 24014KT 10SM CLR 06/M04 A2964 RMK AO2 SLP042 T00641041
KHZD 
30nm SW 
151655Z AUTO 28013G19KT 10SM CLR 07/M05 A2967 RMK A01
KCKV 
30nm NE 
151652Z AUTO 25010KT 10SM CLR 07/M02 A2965 RMK AO2 SLP041 T00671022
KCEY 
30nm NW 
151655Z AUTO 23011KT 10SM CLR 05/M05 A2964 RMK AO1
KPVE 
42nm S 
151655Z AUTO 24012KT 10SM CLR 08/M06 A2969 RMK A01
KM25 
42nm NW 
151655Z AUTO 24014G17KT 10SM CLR 05/M05 A2965 RMK AO2
TAF
KHOP 
29nm NE 
151600Z 1516/1622 22012KT 9999 FEW050 QNH2964INS BECMG 1517/1518 24015G30KT 9999 BKN040 620406 510003 QNH2961INS BECMG 1523/1524 23012KT 8000 -RASN OVC020 620209 QNH2966INS BECMG 1605/1606 29015G20KT 8000 -SN OVC010 620106 QNH2969INS TX05/1517Z TN00/1608Z
KCKV 
30nm NE 
151120Z 1512/1612 23009KT P6SM FEW070 FM151600 24014G23KT P6SM SCT060 SCT120 FM152100 24011G19KT P6SM -SHRASN BKN050 OVC100 FM160200 25008KT 4SM -SHSN BKN015 OVC050
NOTAMs
Click for the latest NOTAMs
NOTAMs are issued by the DoD/FAA and will open in a separate window not controlled by AirNav.

 

 
 

FBO, Fuel Providers, and Aircraft Ground Support

  
 Business Name 
 
 Contact 
 
 Services / Description 
 
Fuel Prices
 
Comments
  
McKinnon Airport 931-289-3633
[email]
Airport management, Aviation fuel, Hangar leasing / sales

More info about McKinnon Airport
100LL
SS $3.90 
 Updated 05-Jan-2020
 
   2 read write
SS=Self service
Update Fuel Prices
 

Would you like to see your business listed on this page?

 If your business provides an interesting product or service to pilots, flight crews, aircraft, or users of the Houston County Airport, you should consider listing it here.  To start the listing process, click on the button below
 
Add a business
 

Other Pages about Houston County Airport

Update a link
 
Copyright © AirNav, LLC. All rights reserved. Privacy Policy  Contact